Regional Weather Roundup
Issued by NWS

Home | Current Version | Previous Version | Text Only | Print | Product List | Glossary Off
Versions: 1 2 3 4 5 6 7 8 9 10 11 12 13 14 15 16 17 18 19 20 21 22 23 24 25 26 27 28 29 30 31 32 33 34 35 36 37 38 39 40 41 42 43 44 45 46 47 48 49 50

000
ASUS43 KDMX 041707
RWRIA

WEATHER ROUNDUP FOR IOWA
NATIONAL WEATHER SERVICE DES MOINES IA
1200 PM CDT MON MAY 04 2015

NOTE: "FAIR" INDICATES FEW OR NO CLOUDS BELOW 12,000 FEET WITH NO
SIGNIFICANT WEATHER AND/OR OBSTRUCTIONS TO VISIBILITY.

* - THESE STATIONS ARE NOT NWS STATIONS...THUS NOT UNDER NWS
QUALITY CONTROL.  THEY ALSO DO NOT REPORT WEATHER SUCH
AS PRECIPITATION OR FOG.

IAZ001>003-012>014-020>022-031>034-043>046-041800-
   NORTHWEST IOWA

CITY           SKY/WX    TMP DP  RH WIND       PRES   REMARKS
CARROLL *      SUNNY     66  43  42 NE25G33   30.11R
CHEROKEE *     PTSUNNY   66  36  32 NE16G24   30.14S
DENISON *      MOSUNNY   66  46  48 E17       30.11R
LE MARS *      SUNNY     68  32  26 NE15G22   30.15R
ORANGE CITY *  SUNNY     66  34  30 NE16G22   30.15S
SHELDON *      SUNNY     66  37  34 NE18      30.15S
SIOUX CITY     PTSUNNY   69  36  29 NE18      30.13R
SPENCER        MOSUNNY   67  36  31 E20G28    30.17R
STORM LAKE *   SUNNY     66  43  42 NE20G26   30.15R
$$

IAZ055>058-069>071-079>083-090>094-041800-
   SOUTHWEST IOWA

CITY           SKY/WX    TMP DP  RH WIND       PRES   REMARKS
ATLANTIC *     MOSUNNY   66  57  72 NE8       30.11R
AUDUBON *      SUNNY     68  55  64 NE8G16    30.12R
CLARINDA *     LGT RAIN  63  59  88 NE12      30.08F
COUNCIL BLFS * SUNNY     64  57  77 NE16      30.09S
CRESTON *      CLOUDY    63  61  94 N5        30.10S
HARLAN  *      PTSUNNY   66  55  68 E13       30.13F
LAMONI         CLOUDY    70  61  73 E8        30.05S
RED OAK *      LGT RAIN  61  59  94 NE6       30.10S
SHENANDOAH *   DRIZZLE   61  59  94 NE13      30.08F
$$

IAZ047>049-059>061-072>074-084-041800-
   CENTRAL IOWA

CITY           SKY/WX    TMP DP  RH WIND       PRES   REMARKS
AMES           PTSUNNY   68  57  68 NE14G21   30.09S
ANKENY *       CLOUDY    68  59  73 E15       30.07F
CHARITON *     SUNNY     72  61  68 VRB7      30.05F
DES MOINES     CLOUDY    69  58  67 NE13      30.07F
GRINNELL*      CLOUDY    68  59  73 E12       30.10S
KNOXVILLE *    MOSUNNY   72  59  64 VRB7      30.05F
MARSHALLTOWN   CLOUDY    66  60  81 NE13      30.10R
PELLA *        PTSUNNY   72  64  78 NE5       30.08S
PERRY *          N/A     68  57  68 NE16      30.09R
$$

IAZ004>006-015-016-023>025-035-036-041800-
   NORTH CENTRAL IOWA

CITY           SKY/WX    TMP DP  RH WIND       PRES   REMARKS
ALGONA *       SUNNY     66  41  39 NE18G26   30.16S
CLARION *      SUNNY     66  46  48 NE21G28   30.14S
ESTHERVILLE    MOSUNNY   66  32  28 E14G24    30.16S
FORT DODGE *   PTSUNNY   64  46  52 NE15      30.14F
MASON CITY     MOSUNNY   66  43  43 NE17      30.17R
FOREST CITY *  SUNNY     64  36  34 NE17G25   30.17R
IOWA FALLS *     N/A     64  52  63 NE16      30.14R
$$

IAZ007>011-017>019-026>030-037>042-050>054-066-041800-
   NORTHEAST IOWA

CITY           SKY/WX    TMP DP  RH WIND       PRES   REMARKS
CEDAR RAPIDS   CLOUDY    66  61  82 NE8       30.11R
CHARLES CITY * SUNNY     64  45  48 NE17G25   30.16R
CLINTON *      PTSUNNY   66  57  72 NE5       30.14R
DECORAH *      SUNNY     64  43  45 N13G18    30.14S
DUBUQUE        MOSUNNY   68  58  70 NE9       30.12R
MONTICELLO *   MOSUNNY   68  63  83 VRB7G14   30.12R
OELWEIN *      SUNNY     66  57  72 NE18      30.13S
WATERLOO       PTSUNNY   68  57  68 E15       30.12R
$$

IAZ064-065-067-068-078-041800-
   EAST CENTRAL IOWA

CITY           SKY/WX    TMP DP  RH WIND       PRES   REMARKS
DAVENPORT      CLOUDY    67  60  78 NE9       30.12R
IOWA CITY      CLOUDY    69  62  78 NE8       30.11R
MT. PLEASANT * MOSUNNY   75  61  60 S8        30.07S
MUSCATINE *    MOSUNNY   73  63  68 VRB3      30.09S
QUAD CITIES    PTSUNNY   75  62  64 N3        30.09R
$$

IAZ062-063-075>077-085>089-095>099-041800-
   SOUTHEAST IOWA

CITY           SKY/WX    TMP DP  RH WIND       PRES   REMARKS
BURLINGTON     PTSUNNY   72  63  73 S7        30.07R
FAIRFIELD *    MOSUNNY   75  57  53 CALM      30.06S
FORT MADISON * MOSUNNY   73  59  60 SW9       30.08S
KEOKUK *       CLOUDY    73  61  64 S7G13     30.07R
OSKALOOSA *    PTSUNNY   75  59  57 CALM      30.06S
CENTERVILLE *  SUNNY     75  64  69 NW3       30.07R
OTTUMWA        MOSUNNY   76  58  53 S3        30.05S
WASHINGTON *   MOSUNNY   73  66  78 CALM      30.08S
$$

ABBREVIATIONS USED IN REMARKS
   TC - TEMPERATURES IN CELSIUS
  WCI - WIND CHILL INDEX
   HX - HEAT INDEX
  VSB - VISIBILITY
$$



USA.gov is the U.S. government's official web portal to all federal, state and local government web resources and services.